Lander, WY

10:18 PM MDT on March 27, 2017 (GMT -0600)
Hunt

Weather History for KLND - December, 2013

Change the Weather History Date:

Tuesday, December 3, 2013

  Actual Average Record
Temperature  
Mean Temperature 17 °F 22 °F  
Max Temperature 31 °F 33 °F 61 °F (1941)
Min Temperature 2 °F 12 °F -18 °F (1897)
Degree Days  
Heating Degree Days 48 43  
Month to date heating degree days 98 127  
Since 1 July heating degree days 1986 2000  
Cooling Degree Days 0 0  
Month to date cooling degree days 0 0  
Year to date cooling degree days 743 472  
Moisture  
Dew Point 10 °F    
Average Humidity 85    
Maximum Humidity 100    
Minimum Humidity 69    
Precipitation  
Precipitation 0.22 in 0.03 in 0.36 in (1909)
Month to date precipitation 0.22 0.07  
Year to date precipitation 15.07 12.15  
Snow  
Snow 3.90 in 0.40 in - ()
Month to date snowfall 3.9 1.2  
Since 1 July snowfall 33.4 26.8  
Snow Depth 3.00 in    
Sea Level Pressure  
Sea Level Pressure 29.74 in    
Wind  
Wind Speed 9 mph (ENE)    
Max Wind Speed 20 mph    
Max Gust Speed 23 mph    
Visibility 2 miles    
Events Fog , Snow    
T = Trace of Precipitation, MM = Missing Value Source: NWS Daily Summary

Daily Weather History Graph

Daily Weather History Graph

Search for Another Location

Airport or City:

Trip Planner

Search our weather history database for the weather conditions in past years. The results will help you decide how hot, cold, wet, or windy it might be!

Date:

Astronomy

Dec. 03, 2013 Rise Set
Actual Time 7:28 AM MST 4:41 PM MST
Civil Twilight 6:56 AM MST 5:13 PM MST
Nautical Twilight 6:21 AM MST 5:48 PM MST
Astronomical Twilight 5:47 AM MST 6:22 PM MST
Moon 8:00 AM MST (12/3) 5:48 PM MST (12/3)
Length of Visible Light 10h 16m
Length of Day
9h 13m
New Moon, 1% of the Moon is Illuminated
Dec 3
New Moon
Dec 9
First Quarter
Dec 17
Full
Dec 25
Last Quarter
Jan 1
New

Hourly Weather History & Observations

Time (MST) Temp. Windchill Dew Point Humidity Pressure Visibility Wind Dir Wind Speed Gust Speed Precip Events Conditions
12:53 AM 28.9 °F - 25.0 °F 85% 29.48 in 10.0 mi Calm Calm - N/A   Scattered Clouds
1:06 AM 30.0 °F 19.5 °F 25.0 °F 82% 29.51 in 10.0 mi North 13.8 mph 17.3 mph N/A   Mostly Cloudy
1:15 AM 30.0 °F 21.1 °F 24.1 °F 79% 29.53 in 10.0 mi North 10.4 mph - N/A   Overcast
1:43 AM 27.0 °F 17.3 °F 23.0 °F 85% 29.55 in 2.0 mi ENE 10.4 mph - 0.00 in Snow Light Snow
1:53 AM 26.1 °F 16.8 °F 23.0 °F 88% 29.54 in 2.5 mi East 9.2 mph - 0.00 in Snow Light Snow
2:00 AM 26.1 °F 15.0 °F 23.0 °F 88% 29.54 in 4.0 mi ENE 12.7 mph - 0.00 in Snow Light Snow
2:36 AM 25.0 °F 15.5 °F 23.0 °F 92% 29.55 in 10.0 mi ESE 9.2 mph - 0.00 in   Overcast
2:53 AM 25.0 °F 13.1 °F 23.0 °F 92% 29.57 in 10.0 mi ESE 13.8 mph - 0.00 in   Overcast
3:22 AM 24.1 °F 13.1 °F 21.0 °F 88% 29.55 in 10.0 mi East 11.5 mph - 0.00 in   Overcast
3:53 AM 24.1 °F 13.7 °F 21.0 °F 88% 29.56 in 7.0 mi SE 10.4 mph - 0.00 in   Overcast
4:00 AM 24.1 °F 15.2 °F 21.9 °F 91% 29.54 in 5.0 mi ESE 8.1 mph - 0.00 in Snow Light Snow
4:51 AM 23.0 °F 12.4 °F 21.2 °F 93% 29.57 in 2.5 mi East 10.4 mph - 0.01 in Snow Light Snow
4:53 AM 23.0 °F 10.1 °F 21.0 °F 92% 29.61 in 2.5 mi East 15.0 mph 20.7 mph 0.01 in Snow Light Snow
5:01 AM 21.9 °F 7.3 °F 19.0 °F 89% 29.57 in 3.0 mi East 18.4 mph 21.9 mph 0.00 in Snow Light Snow
5:31 AM 21.0 °F 9.9 °F 18.0 °F 88% 29.57 in 2.5 mi NNE 10.4 mph - 0.00 in Snow Light Snow
5:53 AM 19.9 °F 10.1 °F 19.0 °F 96% 29.62 in 3.0 mi North 8.1 mph - 0.00 in Snow Light Snow
6:00 AM 19.9 °F 11.1 °F 18.0 °F 92% 29.58 in 2.5 mi North 6.9 mph - 0.01 in Snow Light Snow
6:17 AM 19.0 °F 10.0 °F 17.1 °F 92% 29.58 in 1.8 mi NE 6.9 mph - 0.01 in Snow Light Snow
6:25 AM 19.0 °F 9.0 °F 17.1 °F 92% 29.58 in 1.2 mi NE 8.1 mph - 0.02 in Snow Light Snow
6:27 AM 19.0 °F 11.1 °F 17.1 °F 92% 29.59 in 1.2 mi NE 5.8 mph - 0.02 in Snow Light Snow
6:30 AM 19.0 °F 10.0 °F 17.1 °F 92% 29.59 in 1.2 mi NE 6.9 mph - 0.02 in Snow Light Snow
6:53 AM 19.0 °F 11.1 °F 17.1 °F 92% 29.64 in 1.2 mi North 5.8 mph - 0.03 in Snow Light Snow
7:23 AM 17.1 °F 5.8 °F 15.1 °F 92% 29.62 in 0.8 mi East 9.2 mph - 0.00 in Snow Light Snow
7:53 AM 17.1 °F 7.6 °F 15.1 °F 92% 29.70 in 1.2 mi East 6.9 mph - 0.01 in Snow Light Snow
8:00 AM 17.1 °F 8.7 °F 16.0 °F 96% 29.65 in 0.8 mi East 5.8 mph - 0.01 in Snow Light Snow
8:25 AM 15.1 °F 1.8 °F 12.9 °F 91% 29.67 in 0.5 mi East 11.5 mph - 0.02 in Fog , Snow Snow
8:39 AM 15.1 °F 1.1 °F 12.9 °F 91% 29.68 in 1.2 mi ENE 12.7 mph - 0.02 in Snow Light Snow
8:48 AM 15.8 °F 2.7 °F 12.2 °F 86% 29.68 in 1.2 mi ENE 11.5 mph - 0.02 in Snow Light Snow
8:53 AM 15.1 °F 2.5 °F 12.0 °F 88% 29.75 in 1.5 mi ENE 10.4 mph - 0.02 in Snow Light Snow
9:09 AM 15.1 °F 4.2 °F 12.0 °F 88% 29.69 in 3.0 mi ENE 8.1 mph - 0.00 in Snow Light Snow
9:16 AM 15.1 °F 5.2 °F 12.0 °F 88% 29.70 in 3.0 mi ENE 6.9 mph - 0.00 in Snow Light Snow
9:20 AM 15.1 °F 5.2 °F 12.0 °F 88% 29.70 in 1.8 mi ENE 6.9 mph - 0.00 in Snow Light Snow
9:25 AM 15.1 °F 3.3 °F 12.9 °F 91% 29.70 in 0.8 mi East 9.2 mph - 0.00 in Snow Light Snow
9:37 AM 15.1 °F 1.1 °F 12.0 °F 88% 29.71 in 0.5 mi ENE 12.7 mph - 0.00 in Fog , Snow Snow
9:53 AM 14.0 °F 2.0 °F 10.9 °F 88% 29.80 in 0.8 mi East 9.2 mph - 0.01 in Snow Light Snow
9:59 AM 14.0 °F 1.2 °F 10.0 °F 84% 29.72 in 1.0 mi East 10.4 mph - 0.00 in Snow Light Snow
10:20 AM 14.0 °F 1.2 °F 10.9 °F 88% 29.72 in 0.8 mi ENE 10.4 mph - 0.00 in Snow Light Snow
10:53 AM 14.0 °F 0.5 °F 10.9 °F 88% 29.78 in 0.8 mi ENE 11.5 mph - 0.01 in Snow Light Snow
11:06 AM 12.9 °F 1.6 °F 10.0 °F 88% 29.71 in 0.8 mi ENE 8.1 mph - 0.00 in Snow Light Snow
11:53 AM 12.0 °F -2.0 °F 9.0 °F 88% 29.82 in 0.8 mi NNE 11.5 mph - 0.01 in Snow Light Snow
12:12 PM 12.0 °F 0.5 °F 9.0 °F 88% 29.69 in 1.0 mi NNE 8.1 mph - 0.00 in Snow Light Snow
12:27 PM 12.0 °F 1.5 °F 9.0 °F 88% 29.69 in 0.8 mi NNE 6.9 mph - 0.00 in Snow Light Snow
12:53 PM 12.9 °F 1.6 °F 9.0 °F 84% 29.82 in 0.2 mi East 8.1 mph - 0.01 in Fog , Snow Snow
1:00 PM 12.0 °F 4.1 °F 9.0 °F 88% 29.70 in 0.2 mi East 4.6 mph - 0.01 in Fog , Snow Snow
1:25 PM 12.0 °F -0.4 °F 9.0 °F 88% 29.72 in 0.5 mi East 9.2 mph - 0.02 in Fog , Snow Light Snow
1:53 PM 10.0 °F -6.5 °F 6.1 °F 84% 29.86 in 0.8 mi NNE 15.0 mph - 0.02 in Snow Light Snow
1:57 PM 10.0 °F -4.5 °F 6.1 °F 84% 29.71 in 1.0 mi NNE 11.5 mph - 0.01 in Snow Light Snow
2:39 PM 10.0 °F -5.2 °F 6.1 °F 84% 29.74 in 0.8 mi NE 12.7 mph - 0.02 in Snow Light Snow
2:53 PM 10.0 °F -0.9 °F 6.1 °F 84% 29.89 in 0.8 mi ENE 6.9 mph - 0.02 in Snow Light Snow
3:07 PM 9.0 °F 2.4 °F 5.0 °F 84% 29.73 in 1.0 mi ENE 3.5 mph - 0.00 in Snow Light Snow
3:27 PM 9.0 °F 2.4 °F 5.0 °F 84% 29.73 in 0.8 mi Variable 3.5 mph - 0.00 in Snow Light Snow
3:37 PM 9.0 °F - 5.0 °F 84% 29.75 in 1.0 mi Calm Calm - 0.01 in Snow Light Snow
3:53 PM 9.0 °F 0.6 °F 5.0 °F 84% 29.93 in 1.0 mi North 4.6 mph - 0.01 in Snow Light Snow
4:07 PM 9.0 °F -2.2 °F 5.0 °F 84% 29.75 in 0.8 mi North 6.9 mph - 0.00 in Snow Light Snow
4:14 PM 9.0 °F -2.2 °F 5.0 °F 84% 29.77 in 0.5 mi North 6.9 mph - 0.00 in Fog , Snow Light Snow
4:53 PM 8.1 °F -6.2 °F 5.0 °F 87% 29.94 in 1.0 mi North 10.4 mph - 0.02 in Snow Light Snow
5:53 PM 6.1 °F -10.9 °F 1.9 °F 83% 30.00 in 1.2 mi NNE 13.8 mph - 0.02 in Snow Light Snow
6:15 PM 6.1 °F -10.9 °F 1.9 °F 83% 29.80 in 1.8 mi NE 13.8 mph - 0.00 in Snow Light Snow
6:33 PM 5.0 °F -8.1 °F 1.0 °F 84% 29.81 in 2.0 mi North 8.1 mph - 0.00 in Snow Light Snow
6:53 PM 5.0 °F -6.9 °F 1.0 °F 84% 30.03 in 2.0 mi NNW 6.9 mph - 0.01 in Snow Light Snow
7:02 PM 5.0 °F -5.6 °F 1.0 °F 84% 29.82 in 1.5 mi NNE 5.8 mph - 0.00 in Snow Light Snow
7:14 PM 5.0 °F -4.1 °F 1.0 °F 84% 29.83 in 2.0 mi NNE 4.6 mph - 0.00 in Snow Light Snow
7:21 PM 5.0 °F -4.1 °F 1.0 °F 84% 29.83 in 1.5 mi North 4.6 mph - 0.00 in Snow Light Snow
7:30 PM 5.0 °F -4.1 °F 1.0 °F 84% 29.83 in 2.0 mi NNE 4.6 mph - 0.00 in Snow Light Snow
7:53 PM 3.9 °F -5.3 °F -0.0 °F 84% 30.05 in 1.5 mi NE 4.6 mph - 0.00 in Snow Light Snow
8:18 PM 3.9 °F -3.4 °F -0.9 °F 80% 29.83 in 2.5 mi NE 3.5 mph - 0.01 in Snow Light Snow
8:36 PM 3.9 °F -3.4 °F -0.0 °F 84% 29.83 in 2.5 mi East 3.5 mph - 0.01 in Snow Light Snow
8:45 PM 3.9 °F -5.3 °F -0.0 °F 84% 29.83 in 2.5 mi ESE 4.6 mph - 0.01 in Snow Light Snow
8:53 PM 3.9 °F -5.3 °F -0.0 °F 84% 30.06 in 1.8 mi ESE 4.6 mph - 0.01 in Snow Light Snow
9:05 PM 3.9 °F -8.2 °F -0.0 °F 84% 29.83 in 2.0 mi East 6.9 mph - 0.00 in Snow Light Snow
9:16 PM 3.0 °F -9.3 °F -0.9 °F 84% 29.84 in 1.8 mi East 6.9 mph - 0.00 in Snow Light Snow
9:37 PM 3.0 °F -8.0 °F -0.0 °F 87% 29.84 in 2.0 mi SSE 5.8 mph - 0.00 in Snow Light Snow
9:51 PM 3.2 °F -9.1 °F -0.4 °F 85% 29.84 in 3.0 mi SSE 6.9 mph - 0.00 in   Overcast
9:53 PM 3.0 °F -9.3 °F -0.9 °F 84% 30.08 in 3.0 mi SSE 6.9 mph - 0.00 in   Overcast
10:04 PM 1.9 °F -10.6 °F -0.9 °F 88% 29.84 in 3.0 mi SSE 6.9 mph - N/A   Overcast
10:30 PM 1.9 °F -10.6 °F -0.9 °F 88% 29.83 in 2.0 mi SSE 6.9 mph - N/A   Overcast
10:47 PM 1.4 °F -11.3 °F -2.2 °F 85% 29.82 in 3.0 mi SSE 6.9 mph - N/A   Overcast
10:53 PM 1.9 °F -11.8 °F -2.0 °F 83% 30.07 in 3.0 mi SSE 8.1 mph - N/A   Overcast
11:53 PM 1.9 °F -11.8 °F -2.0 °F 83% 30.08 in 4.0 mi SSE 8.1 mph - N/A   Overcast